Location: Unspecified
(43.4354°N, 0.0000°E)
Time: 11:18:52
(UTC+00:00)

Tiros 1 despin weight - Pass Details

Date: 29 June 2019
Orbit: 594 x 643 km, 48.2° (Epoch: 16 October)

Event Time Altitude Azimuth Distance (km) Brightness Sun altitude
Rises 22:31:44 0° 274° (W) 2,866 ? -20.1°
Reaches altitude 10° 22:34:07 10° 280° (W) 1,954 ? -20.3°
Maximum altitude 22:38:26 46° 354° (N) 814 ? -20.6°
Drops below altitude 10° 22:42:43 10° 69° (ENE) 1,933 ? -20.8°
Sets 22:45:04 0° 75° (ENE) 2,832 ? -21.0°
